Regional Weather Roundup
Issued by NWS State College, PA

Home | Current Version | Previous Version | Graphics & Text | Print | Product List | Glossary On
Versions: 1 2 3 4 5 6 7 8 9 10 11 12 13 14 15 16 17 18 19 20 21 22 23 24 25 26 27 28 29 30 31 32 33 34 35 36 37 38 39 40 41 42 43 44 45 46 47 48 49 50
000
ASUS41 KCTP 021603
RWRCTP

REGIONAL WEATHER ROUNDUP
NATIONAL WEATHER SERVICE STATE COLLEGE PA
1200 PM EDT SUN AUG 02 2015

Note: "fair" indicates few or no clouds below 12,000 feet with no
significant weather and/or obstructions to visibility.

* = STATION THAT DOES NOT REPORT PRECIPITATION /E.G. RAIN...SNOW...ETC/
    THUNDER OR FOG.

PAZ002>004-007>009-013>016-020>023-029>032-021700-
WESTERN PENNSYLVANIA

CITY           SKY/WX    TMP DP  RH WIND       PRES   REMARKS
ERIE           SUNNY     81  56  42 SW10      29.89F
MEADVILLE      SUNNY     79  54  41 W8        29.94F
FRANKLIN*      SUNNY     77  57  50 S8        29.96F
NEW CASTLE     FAIR      82  64  54 CALM      29.95F
BEAVER COUNTY  NOT AVBL
BUTLER*        SUNNY     81  63  54 SW9       29.98S
PITTSBURGH INT MOSUNNY   80  61  52 SW8       29.96F
PITTSBURGH     MOSUNNY   79  57  46 SW9       29.96F
INDIANA*       SUNNY     77  63  61 SW12      30.00F
LATROBE        MOSUNNY   77  59  53 SW14      30.00S
WASHINGTON CO* NOT AVBL
$$

PAZ004>006-010>012-017>019-024>028-033>037-041-042-045-046-049>053-021700-
CENTRAL PENNSYLVANIA

CITY           SKY/WX    TMP DP  RH WIND       PRES   REMARKS
BRADFORD       MOSUNNY   75  50  41 W13G21    29.96F
DUBOIS         MOSUNNY   75  59  57 SW10G17   29.96F
CLEARFIELD     MOSUNNY   75  58  55 S9        29.97F
JOHNSTOWN      PTSUNNY   73  56  54 SW9       30.02S
ALTOONA        SUNNY     78  59  51 SW8       30.00F
STATE COLLEGE  MOSUNNY   75  61  60 SW8       29.97F
WILLIAMSPORT   MOSUNNY   79  61  53 VRB3      29.92F
SELINSGROVE    PTSUNNY   82  62  50 VRB5      29.95F
FT INDIANTOWN  MOSUNNY   83  58  41 SW8       29.95F
CAPITAL CITY   MOSUNNY   84  56  38 S5        29.95S
HARRISBURG     PTSUNNY   84  59  42 SW5       29.95S
YORK           MOSUNNY   82  61  48 SW6       29.97R
$$

PAZ038>040-043-044-047-048-054-055-060>062-067>071-021700-
EASTERN PENNSYLVANIA

CITY           SKY/WX    TMP DP  RH WIND       PRES   REMARKS
SCRANTON       SUNNY     79  58  48 SW12      29.95F
MOUNT POCONO   MOSUNNY   74  54  49 NW6       30.00S
ALLENTOWN      SUNNY     83  58  42 VRB7      29.95F
QUAKERTOWN*    SUNNY     82  57  42 W5        29.97S
READING        SUNNY     83  58  42 VRB3      29.95S
LANCASTER      SUNNY     82  58  43 SW10      29.96S
COATESVILLE    SUNNY     81  54  39 CALM      29.99S
POTTSTOWN      SUNNY     81  61  50 VRB3      29.98S
BLUE BELL      SUNNY     86  57  37 SW7       29.96R
DOYLESTOWN     SUNNY     80  55  42 VRB6      29.96S
WILLOW GROVE   NOT AVBL
NORTH PHILA    SUNNY     87  48  25 W5        29.96S
PHILADELPHIA   PTSUNNY   85  55  35 W7        29.95S
$$



USA.gov is the U.S. government's official web portal to all federal, state and local government web resources and services.